Location: Newark
(27.9675°N, 86.8869°E)
Time: 00:23:46
(UTC+00:00)

Transit 2A Rocket - All Passes

Search period start: 17 October 2019 00:00
Search period end: 27 October 2019 00:00
Orbit: 593 x 910 km, 66.7° (Epoch: 15 October)

Date Brightness Start Highest point End Pass type
(mag) Time Alt. Az. Time Alt. Az. Time Alt. Az.
17 Oct - 00:35:01 10° W 00:37:58 15° WNW 00:40:48 10° NNW daylight
17 Oct - 09:22:41 10° NNW 09:27:01 89° ENE 09:31:31 10° SSE daylight
17 Oct - 22:08:24 10° SSE 22:12:52 26° ESE 22:17:03 10° NE visible
17 Oct - 23:50:46 10° WSW 23:55:17 28° WNW 23:59:31 10° N visible
18 Oct - 08:40:26 10° N 08:44:30 40° ENE 08:48:43 10° SE daylight
18 Oct - 10:25:06 10° W 10:26:38 12° WSW 10:28:13 10° SW daylight
18 Oct - 21:28:01 10° SE 21:30:30 13° ESE 21:32:55 10° ENE visible
18 Oct - 23:07:28 10° SW 23:12:43 53° WNW 23:17:33 10° NNE visible
19 Oct - 07:58:42 10° NNE 08:01:54 20° ENE 08:05:10 10° ESE daylight
19 Oct - 09:40:44 10° NW 09:44:18 25° WSW 09:47:59 10° SSW daylight
19 Oct - 22:24:47 10° SSW 22:30:14 80° ESE 22:35:11 10° NNE visible
20 Oct - 08:57:40 10° NW 09:01:54 54° WSW 09:06:19 10° S daylight
20 Oct - 21:42:43 10° S 21:47:47 40° ESE 21:52:25 10° NE visible
20 Oct - 23:26:44 10° WSW 23:30:20 18° WNW 23:33:44 10° NNW visible
21 Oct - 08:15:08 10° NNW 08:19:26 68° ENE 08:23:55 10° SSE daylight
21 Oct - 21:01:25 10° SSE 21:05:21 21° ESE 21:09:04 10° ENE visible
21 Oct - 22:42:53 10° SW 22:47:42 34° WNW 22:52:09 10° N visible
22 Oct - 07:33:02 10° N 07:36:54 31° ENE 07:40:54 10° SE daylight
22 Oct - 09:16:32 10° WNW 09:19:07 15° WSW 09:21:47 10° SW daylight
22 Oct - 21:59:49 10° SSW 22:05:10 67° WNW 22:10:02 10° NNE visible
23 Oct - 06:51:34 10° NNE 06:54:15 16° ENE 06:56:59 10° E daylight
23 Oct - 08:32:52 10° NW 08:36:45 32° WSW 08:40:49 10° S daylight
23 Oct - 21:17:21 10° SSW 21:22:41 63° ESE 21:27:33 10° NNE visible
23 Oct - 23:03:32 10° WNW 23:05:25 12° WNW 23:07:15 10° NW visible
24 Oct - 07:50:01 10° NNW 07:54:19 72° WSW 07:58:52 10° SSE daylight
24 Oct - 20:35:30 10° S 20:40:14 32° ESE 20:44:37 10° NE night (unlit)
24 Oct - 22:18:39 10° WSW 22:22:42 22° WNW 22:26:31 10° N visible
25 Oct - 07:07:37 10° NNW 07:11:51 51° ENE 07:16:16 10° SE daylight
25 Oct - 19:54:37 10° SE 19:57:50 16° ESE 20:00:55 10° ENE night (unlit)
25 Oct - 21:35:06 10° SW 21:40:07 42° WNW 21:44:44 10° N visible
26 Oct - 06:25:41 10° N 06:29:17 25° ENE 06:32:58 10° ESE daylight
26 Oct - 08:08:22 10° WNW 08:11:35 20° WSW 08:14:56 10° SSW daylight
26 Oct - 20:52:15 10° SSW 20:57:36 84° WNW 21:02:29 10° NNE night (unlit)
